When you browse on this site, cookies collect data to enhance your experience and personalize the content and advertising you see.
Visit our Privacy Policy to learn more. By continuing to use the site, you agree to this use of cookies and data.
  • In Hungary
  • List of Countries
  • For 7 days
  • Water Temperature
  • Satellite Maps
  • Weather Map
  • News
  • Weather Widgets
  • user-avatar
    Login

    Hourly Weather San Luis Teolocholco

    Today, 21 February, Thursday

    Time Temperature Precipitation Wind Pressure Humidity
    00:00 +14°C° 0 mm 2 mps 572 mmHg 51%
    01:00 +13°C° 0 mm 2 mps 572 mmHg 54%
    02:00 +12°C° 0 mm 2 mps 571 mmHg 57%
    03:00 +12°C° 0 mm 2 mps 571 mmHg 58%
    04:00 +11°C° 0 mm 1 mps 571 mmHg 59%
    05:00 +11°C° 0 mm 1 mps 571 mmHg 59%
    06:00 +12°C° 0 mm 2 mps 572 mmHg 55%
    07:00 +14°C° 0 mm 2 mps 573 mmHg 51%
    08:00 +15°C° 0 mm 2 mps 574 mmHg 47%
    09:00 +17°C° 0 mm 3 mps 574 mmHg 41%
    10:00 +19°C° 0 mm 4 mps 575 mmHg 35%
    11:00 +21°C° 0 mm 4 mps 576 mmHg 29%
    12:00 +22°C° 0 mm 5 mps 576 mmHg 25%
    13:00 +23°C° 0 mm 5 mps 576 mmHg 22%
    14:00 +25°C° 0 mm 5 mps 576 mmHg 18%
    15:00 +23°C° 0 mm 5 mps 575 mmHg 19%
    16:00 +22°C° 0 mm 5 mps 575 mmHg 21%
    17:00 +20°C° 0 mm 5 mps 574 mmHg 22%
    18:00 +19°C° 0 mm 4 mps 574 mmHg 27%
    19:00 +17°C° 0 mm 3 mps 574 mmHg 31%
    20:00 +15°C° 0 mm 1 mps 573 mmHg 36%
    21:00 +15°C° 0 mm 1 mps 573 mmHg 38%
    22:00 +14°C° 0 mm 1 mps 573 mmHg 40%
    23:00 +14°C° 0 mm 1 mps 573 mmHg 42%

    Tomorrow, 22 February, Friday

    Time Temperature Precipitation Wind Pressure Humidity
    00:00 +13°C° 0 mm 1 mps 573 mmHg 44%
    01:00 +13°C° 0 mm 1 mps 572 mmHg 45%
    02:00 +12°C° 0 mm 1 mps 572 mmHg 47%
    03:00 +12°C° 0 mm 1 mps 572 mmHg 47%
    04:00 +11°C° 0 mm 1 mps 572 mmHg 47%
    05:00 +11°C° 0 mm 1 mps 572 mmHg 47%
    06:00 +13°C° 0 mm 1 mps 573 mmHg 41%
    07:00 +15°C° 0 mm 1 mps 575 mmHg 35%
    08:00 +18°C° 0 mm 1 mps 576 mmHg 29%
    09:00 +20°C° 0 mm 1 mps 577 mmHg 25%
    10:00 +22°C° 0 mm 1 mps 578 mmHg 21%
    11:00 +24°C° 0 mm 1 mps 579 mmHg 16%
    12:00 +25°C° 0 mm 2 mps 578 mmHg 16%
    13:00 +25°C° 0 mm 3 mps 578 mmHg 15%
    14:00 +26°C° 0 mm 3 mps 577 mmHg 14%
    15:00 +25°C° 0 mm 4 mps 577 mmHg 17%
    16:00 +22°C° 0 mm 4 mps 576 mmHg 20%
    17:00 +21°C° 0 mm 4 mps 576 mmHg 22%
    18:00 +20°C° 0 mm 3 mps 576 mmHg 26%
    19:00 +18°C° 0 mm 2 mps 576 mmHg 30%
    20:00 +16°C° 0 mm 1 mps 575 mmHg 34%
    21:00 +16°C° 0 mm 1 mps 575 mmHg 35%
    22:00 +16°C° 0 mm 1 mps 575 mmHg 36%
    23:00 +15°C° 0 mm 0 mps 575 mmHg 37%

    Day after tomorrow, 23 February, Saturday

    Time Temperature Precipitation Wind Pressure Humidity
    00:00 +14°C° 0 mm 0 mps 575 mmHg 40%
    01:00 +13°C° 0 mm 0 mps 574 mmHg 44%
    02:00 +12°C° 0 mm 0 mps 573 mmHg 47%
    03:00 +13°C° 0 mm 1 mps 573 mmHg 49%
    04:00 +13°C° 0 mm 1 mps 573 mmHg 52%
    05:00 +12°C° 0 mm 1 mps 573 mmHg 54%
    06:00 +14°C° 0 mm 1 mps 574 mmHg 51%
    07:00 +15°C° 0 mm 1 mps 576 mmHg 47%
    08:00 +18°C° 0 mm 1 mps 577 mmHg 44%
    09:00 +20°C° 0 mm 1 mps 577 mmHg 39%
    10:00 +21°C° 0 mm 1 mps 578 mmHg 34%
    11:00 +23°C° 0 mm 1 mps 579 mmHg 29%
    12:00 +24°C° 0 mm 2 mps 578 mmHg 28%
    13:00 +24°C° 0 mm 2 mps 578 mmHg 26%
    14:00 +25°C° 0 mm 3 mps 577 mmHg 25%
    15:00 +24°C° 0 mm 3 mps 577 mmHg 28%
    16:00 +21°C° 0 mm 3 mps 576 mmHg 32%
    17:00 +20°C° 0 mm 2 mps 576 mmHg 35%
    18:00 +19°C° 0 mm 2 mps 576 mmHg 39%
    19:00 +18°C° 0 mm 2 mps 577 mmHg 42%
    20:00 +17°C° 0 mm 2 mps 577 mmHg 45%
    21:00 +17°C° 0 mm 2 mps 577 mmHg 49%
    22:00 +16°C° 0 mm 2 mps 577 mmHg 53%
    23:00 +15°C° 0 mm 2 mps 576 mmHg 57%

    24 February, Sunday

    Time Temperature Precipitation Wind Pressure Humidity
    00:00 +14°C° 0 mm 2 mps 576 mmHg 60%
    01:00 +13°C° 0 mm 2 mps 575 mmHg 63%
    02:00 +13°C° 0 mm 2 mps 574 mmHg 66%
    03:00 +12°C° 0 mm 2 mps 574 mmHg 67%
    04:00 +12°C° 0 mm 2 mps 574 mmHg 69%
    05:00 +12°C° 0 mm 2 mps 574 mmHg 70%
    06:00 +13°C° 0 mm 2 mps 575 mmHg 65%
    07:00 +14°C° 0 mm 2 mps 577 mmHg 60%
    08:00 +15°C° 0 mm 2 mps 578 mmHg 55%
    09:00 +17°C° 0 mm 2 mps 578 mmHg 49%
    10:00 +19°C° 0 mm 2 mps 579 mmHg 43%
    11:00 +21°C° 0 mm 2 mps 580 mmHg 37%
    12:00 +21°C° 0 mm 2 mps 579 mmHg 36%
    13:00 +21°C° 0 mm 3 mps 578 mmHg 36%
    14:00 +22°C° 0 mm 3 mps 578 mmHg 35%
    15:00 +21°C° 0.1 mm 2 mps 577 mmHg 40%
    16:00 +20°C° 0.1 mm 2 mps 577 mmHg 45%
    17:00 +19°C° 0.1 mm 2 mps 576 mmHg 50%
    18:00 +18°C° 0.4 mm 2 mps 577 mmHg 56%
    19:00 +17°C° 0.4 mm 2 mps 577 mmHg 62%
    20:00 +16°C° 0.4 mm 3 mps 577 mmHg 68%
    21:00 +15°C° 0.1 mm 2 mps 577 mmHg 69%
    22:00 +15°C° 0.1 mm 2 mps 577 mmHg 71%
    23:00 +15°C° 0.1 mm 2 mps 577 mmHg 73%

    25 February, Monday

    Time Temperature Precipitation Wind Pressure Humidity
    00:00 +14°C° 0 mm 2 mps 576 mmHg 75%
    01:00 +14°C° 0 mm 2 mps 576 mmHg 78%
    02:00 +13°C° 0 mm 1 mps 575 mmHg 80%
    03:00 +13°C° 0 mm 1 mps 575 mmHg 81%
    04:00 +12°C° 0 mm 1 mps 575 mmHg 83%
    05:00 +12°C° 0 mm 1 mps 575 mmHg 84%
    06:00 +13°C° 0 mm 1 mps 576 mmHg 78%
    07:00 +14°C° 0 mm 1 mps 577 mmHg 72%
    08:00 +16°C° 0 mm 1 mps 578 mmHg 65%
    09:00 +19°C° 0 mm 1 mps 578 mmHg 57%
    10:00 +20°C° 0 mm 1 mps 579 mmHg 49%
    11:00 +22°C° 0 mm 1 mps 579 mmHg 41%
    12:00 +23°C° 0.2 mm 2 mps 579 mmHg 38%
    13:00 +22°C° 0.2 mm 3 mps 578 mmHg 36%
    14:00 +23°C° 0.2 mm 4 mps 578 mmHg 34%
    15:00 +22°C° 0.2 mm 3 mps 578 mmHg 36%
    16:00 +21°C° 0.2 mm 3 mps 577 mmHg 37%
    17:00 +20°C° 0.2 mm 3 mps 577 mmHg 39%
    18:00 +19°C° 0 mm 2 mps 577 mmHg 45%
    19:00 +18°C° 0 mm 2 mps 577 mmHg 51%
    20:00 +16°C° 0 mm 1 mps 577 mmHg 56%
    21:00 +16°C° 0.1 mm 1 mps 577 mmHg 61%
    22:00 +15°C° 0.1 mm 1 mps 576 mmHg 65%
    23:00 +14°C° 0.1 mm 2 mps 576 mmHg 69%

    26 February, Tuesday

    Time Temperature Precipitation Wind Pressure Humidity
    00:00 +14°C° 0 mm 2 mps 576 mmHg 71%
    01:00 +14°C° 0 mm 1 mps 575 mmHg 73%
    02:00 +13°C° 0 mm 1 mps 575 mmHg 76%
    03:00 +13°C° 0 mm 1 mps 575 mmHg 75%
    04:00 +13°C° 0 mm 1 mps 575 mmHg 75%
    05:00 +11°C° 0 mm 0 mps 575 mmHg 75%
    06:00 +13°C° 0 mm 0 mps 576 mmHg 67%
    07:00 +14°C° 0 mm 0 mps 577 mmHg 59%
    08:00 +16°C° 0 mm 0 mps 578 mmHg 51%
    09:00 +20°C° 0 mm 1 mps 578 mmHg 44%
    10:00 +21°C° 0 mm 1 mps 579 mmHg 37%
    11:00 +23°C° 0 mm 1 mps 579 mmHg 31%
    12:00 +24°C° 0 mm 2 mps 579 mmHg 29%
    13:00 +24°C° 0 mm 2 mps 578 mmHg 27%
    14:00 +25°C° 0 mm 3 mps 578 mmHg 25%
    15:00 +24°C° 0.1 mm 3 mps 578 mmHg 29%
    16:00 +23°C° 0.1 mm 2 mps 577 mmHg 32%
    17:00 +21°C° 0.1 mm 2 mps 577 mmHg 36%
    18:00 +20°C° 0.8 mm 3 mps 577 mmHg 44%
    19:00 +18°C° 0.8 mm 4 mps 577 mmHg 52%
    20:00 +15°C° 0.8 mm 4 mps 577 mmHg 61%
    21:00 +15°C° 2.2 mm 4 mps 576 mmHg 66%
    22:00 +14°C° 2.2 mm 4 mps 576 mmHg 71%
    23:00 +13°C° 2.2 mm 4 mps 575 mmHg 76%
    Show more